Location: Unspecified
(0.0000°N, 0.0000°E)
Time: 14:32:07
(UTC+00:00)

Envisat - Pass Details

Date: 14 August 2019
Orbit: 764 x 766 km, 98.1° (Epoch: 21 August)

Event Time Altitude Azimuth Distance (km) Brightness Sun altitude
Rises 18:43:20 0° 170° (S) 3,231 6.0 -9.4°
Reaches altitude 10° 18:45:39 10° 170° (S) 2,302 5.2 -9.9°
Maximum altitude 18:50:44 84° 257° (WSW) 773 3.1 -11.1°
Drops below altitude 10° 18:55:47 10° 346° (NNW) 2,291 5.9 -12.4°
Sets 18:58:05 0° 347° (NNW) 3,214 6.6 -12.9°
